Weather History for Anchorage, AK

Change the Weather History Date:

Saturday, April 26, 2014

  Actual Average Record
Temperature  
Mean Temperature 40 °F 41 °F  
Max Temperature 45 °F 49 °F 66 °F (2005)
Min Temperature 34 °F 33 °F 16 °F (1955)
Degree Days  
Heating Degree Days 25    
Month to date heating degree days 725  
Since 1 July heating degree days 8640  
Cooling Degree Days 0    
Month to date cooling degree days 0  
Year to date cooling degree days 0  
Moisture  
Dew Point 29 °F    
Average Humidity 63    
Maximum Humidity 76    
Minimum Humidity 49    
Precipitation  
Precipitation 0.00 in 0.02 in 0.30 in (1975)
Month to date precipitation 0.04 0.40  
Year to date precipitation 2.76 2.45  
Snow  
Snow 0.00 in 0.00 in 5.50 in (1975)
Month to date snowfall 0.4 3.7  
Since 1 July snowfall 64.7 73.9  
Snow Depth 0.00 in    
Sea Level Pressure  
Sea Level Pressure 29.40 in    
Wind  
Wind Speed 4 mph (WSW)    
Max Wind Speed 8 mph    
Max Gust Speed -    
Visibility 10 miles    
Events      
T = Trace of Precipitation, MM = Missing Value Source: NWS Daily Summary

Daily Weather History Graph

Daily Weather History Graph

Search for Another Location

Airport:

Trip Planner

Search our weather history database for the weather conditions in past years. The results will help you decide how hot, cold, wet, or windy it might be!

Date:

Astronomy

Apr. 26, 2014 Rise Set
Actual Time 6:05 AM AKDT 9:51 PM AKDT
Civil Twilight 5:11 AM AKDT 10:46 PM AKDT
Nautical Twilight 3:50 AM AKDT 12:10 AM AKDT
Astronomical Twilight 2:30 AM AKDT Sun does not rise
Moon 5:25 AM AKDT (4/26) 6:51 PM AKDT (4/26)
Length of Visible Light 17h 34m
Length of Day
15h 46m
Waning Crescent, 7% of the Moon is Illuminated
Apr 26
Waning Crescent
Apr 28
New
May 6
First Quarter
May 14
Full
May 21
Last Quarter

Hourly Weather History & Observations

Time (AKDT) Temp. Windchill Dew Point Humidity Pressure Visibility Wind Dir Wind Speed Gust Speed Precip Events Conditions
12:53 AM 39.9 °F 37.8 °F 28.9 °F 65% 29.45 in 10.0 mi WSW 3.5 mph - N/A   Overcast
1:53 AM 37.9 °F - 28.9 °F 70% 29.45 in 10.0 mi Calm Calm - N/A   Overcast
2:53 AM 37.9 °F 32.7 °F 30.9 °F 76% 29.45 in 10.0 mi North 6.9 mph - N/A   Overcast
3:53 AM 37.9 °F 33.5 °F 28.9 °F 70% 29.44 in 10.0 mi NNW 5.8 mph - N/A   Overcast
4:53 AM 37.0 °F 33.3 °F 28.9 °F 73% 29.43 in 10.0 mi North 4.6 mph - N/A   Overcast
5:53 AM 36.0 °F 30.3 °F 28.0 °F 73% 29.42 in 10.0 mi NE 6.9 mph - N/A   Mostly Cloudy
6:53 AM 37.9 °F - 28.0 °F 68% 29.40 in 10.0 mi Calm Calm - N/A   Mostly Cloudy
7:53 AM 39.0 °F 34.8 °F 28.0 °F 65% 29.38 in 10.0 mi North 5.8 mph - N/A   Overcast
8:53 AM 37.0 °F 33.3 °F 27.0 °F 67% 29.40 in 10.0 mi WNW 4.6 mph - N/A   Overcast
9:53 AM 37.9 °F - 28.0 °F 68% 29.39 in 10.0 mi Calm Calm - N/A   Overcast
10:53 AM 39.9 °F - 27.0 °F 60% 29.40 in 10.0 mi Calm Calm - N/A   Overcast
11:53 AM 42.1 °F 37.1 °F 28.0 °F 58% 29.39 in 10.0 mi NNW 8.1 mph - N/A   Overcast
12:53 PM 43.0 °F - 27.0 °F 53% 29.39 in 10.0 mi Calm Calm - N/A   Overcast
1:53 PM 45.0 °F 42.6 °F 27.0 °F 49% 29.39 in 10.0 mi West 4.6 mph - N/A   Overcast
2:53 PM 46.0 °F 44.8 °F 27.0 °F 47% 29.39 in 10.0 mi East 3.5 mph - N/A   Overcast
3:53 PM 45.0 °F 40.1 °F 30.9 °F 58% 29.39 in 10.0 mi South 9.2 mph - N/A   Overcast
4:53 PM 48.0 °F - 28.9 °F 48% 29.37 in 10.0 mi WSW 3.5 mph - N/A   Overcast
5:53 PM 46.9 °F - 30.0 °F 52% 29.37 in 10.0 mi South 3.5 mph - N/A   Overcast
6:53 PM 45.0 °F 40.6 °F 30.9 °F 58% 29.37 in 10.0 mi South 8.1 mph - N/A   Mostly Cloudy
7:53 PM 44.1 °F 40.8 °F 30.9 °F 60% 29.37 in 10.0 mi South 5.8 mph - N/A   Mostly Cloudy
8:53 PM 44.1 °F 40.8 °F 30.9 °F 60% 29.38 in 10.0 mi South 5.8 mph - N/A   Mostly Cloudy
9:53 PM 42.1 °F - 30.9 °F 65% 29.39 in 10.0 mi Calm Calm - N/A   Mostly Cloudy
10:53 PM 42.1 °F 38.4 °F 32.0 °F 67% 29.39 in 10.0 mi South 5.8 mph - N/A   Mostly Cloudy
11:53 PM 39.0 °F - 32.0 °F 76% 29.39 in 10.0 mi Calm Calm - N/A   Mostly Cloudy